User: anonymous   Login
Location: Unspecified
(0.0000°N, 0.0000°E)
Time: 19:42:00
(UTC+00:00)
Language:

SAUDISAT 4 - Orbit

View from above orbital plane
View from above orbital plane
View from above satellite
View from above satellite

Ground track
Ground track

The orbit data is extracted from the following two-line orbital elements,

1 40016U 14033G   19341.51703604  .00000013  00000-0  93215-5 0  9995
2 40016  97.7354 206.7136 0046978 250.6223 108.9905 14.75263152294336
Epoch (UTC): 07 December 2019 12:24:31
Eccentricity: 0.0046978
inclination: 97.7354°
perigee height: 611 km
apogee height: 677 km
right ascension of ascending node: 206.7136°
argument of perigee: 250.6223°
revolutions per day: 14.75263152
mean anomaly at epoch: 108.9905°
orbit number at epoch: 29433

The dashed part of the orbit path shows where the satellite is in the earth's shadow,  

DLR